Tracking 19638 objects as of 19-May-2019
HD Live streaming from Space Station
objects crossing your sky now

CARTOSAT-1

Track CARTOSAT-1 now!
10-day predictions
CARTOSAT-1 is classified as:


NORAD ID: 28649
Int'l Code: 2005-017A
Perigee: 624.4 km
Apogee: 625.6 km
Inclination: 97.9 °
Period: 97.1 minutes
Semi major axis: 6996 km
RCS: 4.7551 m2 (large)
Launch date: May 5, 2005
Source: India (IND)
Launch site: SRIHARIKOTA (SRI)

Remote sensing and mapping, land use, forest cover, river flow assessments.
aabbcc
Your satellite tracking list
Your tracking list is empty




NASA's NSSDC Master Catalog

Two Line Element Set (TLE):
1 28649U 05017A   19139.76885886  .00000068  00000-0  14629-4 0  9991
2 28649  97.8556 210.9451 0000848  15.8969 344.2267 14.83637325759990
Source of the keplerian elements: AFSPC